User: anonymous   Login
Location: Newark
(46.3567°N, 6.1428°E)
Time: 17:52:46
(UTC+00:00)
Language:

First-Move - Orbit

View from above orbital plane
View from above orbital plane
View from above satellite
View from above satellite

Ground track
Ground track

The orbit data is extracted from the following two-line orbital elements,

1 39439U 13066Z   19291.71227548 +.00000393 +00000-0 +54351-4 0  9999
2 39439 097.5707 298.4536 0065240 355.5782 004.4847 14.81922671317924
Epoch (UTC): 18 October 2019 17:05:40
Eccentricity: 0.0065240
inclination: 97.5707°
perigee height: 577 km
apogee height: 669 km
right ascension of ascending node: 298.4536°
argument of perigee: 355.5782°
revolutions per day: 14.81922671
mean anomaly at epoch: 4.4847°
orbit number at epoch: 31792

The dashed part of the orbit path shows where the satellite is in the earth's shadow,  

DLR